Meteo Giornale » Osservazioni meteo Italia » Palermo-Punta Raisi

ore: 00:50 - Osservazioni Meteo Palermo-Punta Raisi
Lat. 38° 11' N Lon. 13° 6' E Alt. 21 metri s.l.m.

sereno Europe/Rome

22 °C

Sereno

Temp. 24 Ore

21 °C

25 °C

Sud-Ovest

11.1 Km/h

Dew point 20 °C

Umidità 88 %

Visibilità  10 Km

Il sole sorge alle ore 05:42

Il sole tramonta alle ore 20:34

Data e Ora Cielo e Fenomeni T °C DP °C Um. % Pres. hPa Vis. km Vento km/h
Oggi h: 00:50 sereno Sereno 22 20 88 1014 10 SO 11.1
Oggi h: 00:20 sereno Sereno 22 20 88 1014 8 E 16.7
Ieri h: 23:50 sereno Sereno 22 21 94 1014 8 E 7.4
Ieri h: 23:20 sereno Sereno 22 21 94 1014 8 E/NE 24
Ieri h: 22:50 sereno Sereno 22 21 94 1014 10 E 16.7
Ieri h: 22:20 sereno Sereno 23 21 88 1014 10 E 14.8
Ieri h: 21:50 sereno Sereno 23 20 83 1014 10 E 11.1
Ieri h: 21:20 sereno Sereno 23 21 88 1013 10 E/NE 13
Ieri h: 20:50 sereno Sereno 23 21 88 1013 10 E 24
Ieri h: 20:20 sereno Sereno 23 21 88 1013 10 E/NE 24
Ieri h: 19:50 sereno Sereno 24 21 83 1013 10 E/NE 27.8
Ieri h: 19:20 sereno Sereno 24 21 83 1013 10 E/NE 33.3
Ieri h: 18:50 sereno Sereno 24 21 83 1013 10 NE 33.3
Ieri h: 18:20 sereno Sereno 25 21 78 1013 10 E/NE 33.3
Ieri h: 17:50 sereno Sereno 25 21 78 1013 10 NE 33.3
Ieri h: 17:20 sereno Sereno 25 21 78 1014 10 NE 33.3
Ieri h: 16:50 sereno Sereno 25 21 78 1014 10 NE 33.3
Ieri h: 16:20 sereno Sereno 25 21 78 1014 10 NE 33.3
Ieri h: 15:50 sereno Sereno 25 21 78 1014 10 NE 33.3
Ieri h: 15:20 sereno Sereno 24 21 83 1014 10 NE 33.3
Ieri h: 14:50 sereno Sereno 24 21 83 1014 10 NE 31.5
Ieri h: 14:20 sereno Sereno 24 21 83 1015 10 NE 29.6
Ieri h: 13:50 sereno Sereno 24 20 78 1015 10 NE 31.5
Ieri h: 13:20 sereno Sereno 24 20 78 1015 10 NE 29.6
Ieri h: 12:50 sereno Sereno 24 20 78 1016 10 NE 29.6
Ieri h: 12:20 sereno Sereno 23 20 83 1016 10 NE 29.6
Ieri h: 11:50 sereno Sereno 23 20 83 1016 10 NE 27.8
Ieri h: 11:20 poco_nuvoloso Poco Nuvoloso 23 20 83 1016 10 NE 25.9
Ieri h: 10:50 nuvoloso Nuvoloso 23 20 83 1016 10 N/NE 20.3
Ieri h: 10:20 sereno Sereno 23 20 83 1015 10 NE 20.3
Ieri h: 09:50 sereno Sereno 22 20 88 1015 10 N/NE 18.5
Ieri h: 09:20 sereno Sereno 22 20 88 1015 10 N/NE 18.5
Ieri h: 08:50 poco_nuvoloso Poco Nuvoloso 22 20 88 1015 7 NE 18.5
Ieri h: 08:20 nuvoloso Nuvoloso 22 20 88 1015 6 N/NE 20.3
Ieri h: 07:50 nuvoloso Nuvoloso 22 20 88 1015 7 NE 20.3
Ieri h: 07:20 poco_nuvoloso Poco Nuvoloso 21 20 94 1015 7 NE 18.5
Ieri h: 06:50 poco_nuvoloso Poco Nuvoloso 21 20 94 1015 6 NE 13
Ieri h: 06:20 foschia Foschia 21 20 94 1015 5 NE 7.4
Ieri h: 05:50 foschia Foschia 21 20 94 1015 5 NE 7.4
Ieri h: 05:20 poco_nuvoloso Poco Nuvoloso 22 20 88 1015 6 N/NE 11.1
Ieri h: 04:50 sereno Sereno 22 20 88 1015 8 N/NE 13
Ieri h: 04:20 sereno Sereno 22 20 88 1015 10 N/NE 11.1
Ieri h: 03:50 sereno Sereno 22 20 88 1015 10 N/NE 7.4
Ieri h: 03:20 sereno Sereno 22 20 88 1015 10 N 1.8
Ieri h: 02:50 sereno Sereno 22 20 88 1015 10 N 5.5
Ieri h: 02:20 sereno Sereno 22 20 88 1015 10 N 1.8
Ieri h: 01:50 sereno Sereno 22 20 88 1016 10 N 1.8